Location: Tierz
(42.1336°N, 0.3549°W)
Time: 22:30:49
(UTC+00:00)

H-2A R/B - Pass Details

Date: 29 October 2020
Orbit: 733 x 837 km, 98.2° (Epoch: 25 November)

Event Time Altitude Azimuth Distance (km) Brightness Sun altitude
Exits shadow 17:56:29 - 130° (SE) 3,225 4.8 -11.3°
Reaches altitude 10° 17:58:48 10° 119° (ESE) 2,437 4.1 -11.7°
Maximum altitude 18:03:11 26° 65° (ENE) 1,596 3.1 -12.5°
Drops below altitude 10° 18:07:37 10° 11° (N) 2,459 4.4 -13.3°
Sets 18:10:19 0° 359° (N) 3,395 5.3 -13.8°
